Time,TemperatureF,DewpointF,PressureIn,WindDirection,WindDirectionDegrees,WindSpeedMPH,WindSpeedGustMPH,Humidity,HourlyPrecipIn,Conditions,Clouds,dailyrainin,SoftwareType,DateUTC
2013-05-23 00:02:00,52.0,27.0,-100.00,ESE,110,32.0,44.0,37,-99.99,,,-99.99,,2013-05-23 06:02:00,
2013-05-23 00:11:00,52.0,27.0,-100.00,ESE,110,32.0,39.0,38,-99.99,,,-99.99,,2013-05-23 06:11:00,
2013-05-23 00:21:00,52.0,27.0,-100.00,ESE,105,33.0,39.0,38,-99.99,,,-99.99,,2013-05-23 06:21:00,
2013-05-23 00:31:00,52.0,28.0,-100.00,ESE,110,34.0,38.0,38,-99.99,,,-99.99,,2013-05-23 06:31:00,
2013-05-23 00:41:00,52.0,28.0,-100.00,ESE,105,35.0,41.0,38,-99.99,,,-99.99,,2013-05-23 06:41:00,
2013-05-23 00:51:00,52.0,28.0,-100.00,ESE,105,32.0,38.0,39,-99.99,,,-99.99,,2013-05-23 06:51:00,
2013-05-23 01:01:00,51.0,28.0,-100.00,ESE,105,29.0,39.0,39,-99.99,,,-99.99,,2013-05-23 07:01:00,
2013-05-23 01:11:00,50.0,28.0,-100.00,East,100,26.0,34.0,41,-99.99,,,-99.99,,2013-05-23 07:11:00,
2013-05-23 01:21:00,51.0,28.0,-100.00,ESE,110,24.0,37.0,40,-99.99,,,-99.99,,2013-05-23 07:21:00,
2013-05-23 01:31:00,51.0,28.0,-100.00,East,100,14.0,29.0,40,-99.99,,,-99.99,,2013-05-23 07:31:00,
2013-05-23 01:41:00,50.0,28.0,-100.00,ENE,60,3.0,16.0,42,-99.99,,,-99.99,,2013-05-23 07:41:00,
2013-05-23 01:59:00,50.0,28.0,-100.00,NNW,335,5.0,6.0,43,-99.99,,,-99.99,,2013-05-23 07:59:00,
2013-05-23 02:11:00,49.0,29.0,-100.00,NNE,30,6.0,9.0,44,-99.99,,,-99.99,,2013-05-23 08:11:00,
2013-05-23 02:21:00,48.0,29.0,-100.00,North,0,4.0,7.0,46,-99.99,,,-99.99,,2013-05-23 08:21:00,
2013-05-23 02:31:00,49.0,29.0,-100.00,North,-999,-999.0,-999.0,46,-99.99,,,-99.99,,2013-05-23 08:31:00,
2013-05-23 02:51:00,48.0,29.0,-100.00,NNW,330,7.0,9.0,48,-99.99,,,-99.99,,2013-05-23 08:51:00,
2013-05-23 03:01:00,47.0,30.0,-100.00,North,355,7.0,9.0,51,-99.99,,,-99.99,,2013-05-23 09:01:00,
2013-05-23 03:11:00,46.0,32.0,-100.00,North,0,8.0,11.0,57,-99.99,,,-99.99,,2013-05-23 09:11:00,
2013-05-23 03:21:00,45.0,33.0,-100.00,North,355,9.0,11.0,61,-99.99,,,-99.99,,2013-05-23 09:21:00,
2013-05-23 03:32:00,45.0,34.0,-100.00,North,0,9.0,11.0,65,-99.99,,,-99.99,,2013-05-23 09:32:00,
2013-05-23 03:42:00,45.0,35.0,-100.00,North,0,9.0,11.0,67,-99.99,,,-99.99,,2013-05-23 09:42:00,
2013-05-23 03:53:00,45.0,35.0,-100.00,North,0,9.0,11.0,67,-99.99,,,-99.99,,2013-05-23 09:53:00,
2013-05-23 04:02:00,44.0,36.0,-100.00,North,0,11.0,-999.0,74,-99.99,,,-99.99,,2013-05-23 10:02:00,
2013-05-23 04:12:00,44.0,36.0,-100.00,North,350,10.0,14.0,75,-99.99,,,-99.99,,2013-05-23 10:12:00,
2013-05-23 04:22:00,43.0,36.0,-100.00,NNW,345,9.0,-999.0,77,-99.99,,,-99.99,,2013-05-23 10:22:00,
2013-05-23 04:32:00,42.0,36.0,-100.00,North,350,7.0,11.0,79,-99.99,,,-99.99,,2013-05-23 10:32:00,
2013-05-23 04:42:00,42.0,37.0,-100.00,NNW,340,9.0,-999.0,81,-99.99,,,-99.99,,2013-05-23 10:42:00,
2013-05-23 04:52:00,42.0,37.0,-100.00,NNW,335,8.0,12.0,81,-99.99,,,-99.99,,2013-05-23 10:52:00,
2013-05-23 05:02:00,42.0,37.0,-100.00,NW,325,7.0,9.0,82,-99.99,,,-99.99,,2013-05-23 11:02:00,
2013-05-23 05:11:00,41.0,36.0,-100.00,NW,320,7.0,-999.0,82,-99.99,,,-99.99,,2013-05-23 11:11:00,
2013-05-23 05:21:00,41.0,36.0,-100.00,NW,325,7.0,8.0,83,-99.99,,,-99.99,,2013-05-23 11:21:00,
2013-05-23 05:32:00,41.0,36.0,-100.00,NNW,335,7.0,9.0,83,-99.99,,,-99.99,,2013-05-23 11:32:00,
2013-05-23 05:41:00,41.0,37.0,-100.00,NNW,340,7.0,9.0,84,-99.99,,,-99.99,,2013-05-23 11:41:00,
2013-05-23 05:52:00,41.0,37.0,-100.00,NNW,335,8.0,9.0,84,-99.99,,,-99.99,,2013-05-23 11:52:00,
2013-05-23 06:01:00,41.0,37.0,-100.00,NNW,335,8.0,9.0,84,-99.99,,,-99.99,,2013-05-23 12:01:00,
2013-05-23 06:11:00,41.0,37.0,-100.00,NNW,330,8.0,-999.0,84,-99.99,,,-99.99,,2013-05-23 12:11:00,
2013-05-23 06:32:00,42.0,37.0,-100.00,North,-999,-999.0,-999.0,84,-99.99,,,-99.99,,2013-05-23 12:32:00,
2013-05-23 06:51:00,42.0,38.0,-100.00,NNW,330,8.0,12.0,84,-99.99,,,-99.99,,2013-05-23 12:51:00,
2013-05-23 07:01:00,42.0,38.0,-100.00,NNW,340,8.0,11.0,84,-99.99,,,-99.99,,2013-05-23 13:01:00,
2013-05-23 07:11:00,42.0,38.0,-100.00,NW,320,7.0,11.0,83,-99.99,,,-99.99,,2013-05-23 13:11:00,
2013-05-23 07:21:00,43.0,38.0,-100.00,NW,320,7.0,10.0,82,-99.99,,,-99.99,,2013-05-23 13:21:00,
2013-05-23 07:31:00,43.0,37.0,-100.00,NNW,335,8.0,10.0,81,-99.99,,,-99.99,,2013-05-23 13:31:00,
2013-05-23 07:41:00,43.0,37.0,-100.00,North,-999,-999.0,-999.0,79,-99.99,,,-99.99,,2013-05-23 13:41:00,
2013-05-23 07:52:00,44.0,37.0,-100.00,NW,320,8.0,-999.0,77,-99.99,,,-99.99,,2013-05-23 13:52:00,
2013-05-23 08:01:00,46.0,36.0,-100.00,NNW,330,6.0,-999.0,68,-99.99,,,-99.99,,2013-05-23 14:01:00,
2013-05-23 08:11:00,47.0,35.0,-100.00,NNW,330,9.0,12.0,61,-99.99,,,-99.99,,2013-05-23 14:11:00,
2013-05-23 08:21:00,47.0,34.0,-100.00,NW,325,9.0,11.0,60,-99.99,,,-99.99,,2013-05-23 14:21:00,
2013-05-23 08:32:00,46.0,34.0,-100.00,NNW,340,11.0,12.0,61,-99.99,,,-99.99,,2013-05-23 14:32:00,
2013-05-23 08:41:00,47.0,35.0,-100.00,NNW,335,9.0,12.0,62,-99.99,,,-99.99,,2013-05-23 14:41:00,
2013-05-23 08:52:00,46.0,35.0,-100.00,NNW,335,10.0,13.0,63,-99.99,,,-99.99,,2013-05-23 14:52:00,
2013-05-23 09:01:00,46.0,35.0,-100.00,NNW,335,9.0,13.0,64,-99.99,,,-99.99,,2013-05-23 15:01:00,
2013-05-23 09:11:00,46.0,35.0,-100.00,North,350,9.0,12.0,66,-99.99,,,-99.99,,2013-05-23 15:11:00,
2013-05-23 09:21:00,47.0,36.0,-100.00,North,0,7.0,11.0,64,-99.99,,,-99.99,,2013-05-23 15:21:00,
2013-05-23 09:32:00,47.0,35.0,-100.00,North,355,7.0,11.0,62,-99.99,,,-99.99,,2013-05-23 15:32:00,
2013-05-23 09:42:00,49.0,35.0,-100.00,NNW,330,8.0,12.0,56,-99.99,,,-99.99,,2013-05-23 15:42:00,
2013-05-23 09:53:00,51.0,34.0,-100.00,NW,315,7.0,11.0,51,-99.99,,,-99.99,,2013-05-23 15:53:00,
2013-05-23 10:03:00,51.0,33.0,-100.00,NW,325,6.0,10.0,48,-99.99,,,-99.99,,2013-05-23 16:03:00,
2013-05-23 10:12:00,53.0,32.0,-100.00,NW,305,6.0,9.0,45,-99.99,,,-99.99,,2013-05-23 16:12:00,
2013-05-23 10:22:00,53.0,32.0,-100.00,NW,305,4.0,9.0,44,-99.99,,,-99.99,,2013-05-23 16:22:00,
2013-05-23 10:33:00,55.0,32.0,-100.00,NW,305,6.0,8.0,41,-99.99,,,-99.99,,2013-05-23 16:33:00,
2013-05-23 10:42:00,55.0,32.0,-100.00,WNW,285,5.0,9.0,40,-99.99,,,-99.99,,2013-05-23 16:42:00,
2013-05-23 10:52:00,53.0,32.0,-100.00,North,355,6.0,8.0,44,-99.99,,,-99.99,,2013-05-23 16:52:00,
2013-05-23 11:02:00,56.0,32.0,-100.00,NNW,330,6.0,10.0,40,-99.99,,,-99.99,,2013-05-23 17:02:00,
2013-05-23 11:11:00,56.0,33.0,-100.00,NNW,340,4.0,8.0,40,-99.99,,,-99.99,,2013-05-23 17:11:00,
2013-05-23 11:22:00,55.0,33.0,-100.00,North,-999,-999.0,-999.0,43,-99.99,,,-99.99,,2013-05-23 17:22:00,
2013-05-23 11:33:00,55.0,33.0,-100.00,North,-999,-999.0,-999.0,43,-99.99,,,-99.99,,2013-05-23 17:33:00,
2013-05-23 11:42:00,58.0,34.0,-100.00,NNW,330,10.0,-999.0,40,-99.99,,,-99.99,,2013-05-23 17:42:00,
2013-05-23 11:52:00,57.0,34.0,-100.00,NNW,340,11.0,13.0,41,-99.99,,,-99.99,,2013-05-23 17:52:00,
2013-05-23 12:01:00,58.0,34.0,-100.00,NW,325,9.0,14.0,40,-99.99,,,-99.99,,2013-05-23 18:01:00,
2013-05-23 12:11:00,58.0,34.0,-100.00,North,350,11.0,-999.0,39,-99.99,,,-99.99,,2013-05-23 18:11:00,
2013-05-23 12:21:00,60.0,34.0,-100.00,NW,325,9.0,12.0,37,-99.99,,,-99.99,,2013-05-23 18:21:00,
2013-05-23 12:32:00,60.0,34.0,-100.00,North,-999,-999.0,-999.0,37,-99.99,,,-99.99,,2013-05-23 18:32:00,
2013-05-23 12:42:00,62.0,34.0,-100.00,WNW,290,7.0,-999.0,34,-99.99,,,-99.99,,2013-05-23 18:42:00,
2013-05-23 12:51:00,63.0,33.0,-100.00,North,355,17.0,21.0,32,-99.99,,,-99.99,,2013-05-23 18:51:00,
2013-05-23 13:01:00,64.0,31.0,-100.00,WSW,245,4.0,18.0,29,-99.99,,,-99.99,,2013-05-23 19:01:00,
2013-05-23 13:11:00,66.0,32.0,-100.00,SW,225,7.0,34.0,28,-99.99,,,-99.99,,2013-05-23 19:11:00,
2013-05-23 13:21:00,71.0,15.0,-100.00,SSW,200,19.0,32.0,11,-99.99,,,-99.99,,2013-05-23 19:21:00,
2013-05-23 13:31:00,70.0,11.0,-100.00,SSW,195,16.0,32.0,10,-99.99,,,-99.99,,2013-05-23 19:31:00,
2013-05-23 13:41:00,72.0,13.0,-100.00,SSW,210,24.0,35.0,10,-99.99,,,-99.99,,2013-05-23 19:41:00,
2013-05-23 13:52:00,72.0,12.0,-100.00,South,180,22.0,39.0,9,-99.99,,,-99.99,,2013-05-23 19:52:00,
2013-05-23 14:02:00,72.0,12.0,-100.00,South,180,22.0,36.0,9,-99.99,,,-99.99,,2013-05-23 20:02:00,
2013-05-23 14:11:00,72.0,13.0,-100.00,SSW,210,29.0,40.0,9,-99.99,,,-99.99,,2013-05-23 20:11:00,
2013-05-23 14:21:00,73.0,13.0,-100.00,South,190,27.0,40.0,9,-99.99,,,-99.99,,2013-05-23 20:21:00,
2013-05-23 14:31:00,72.0,13.0,-100.00,SSW,195,27.0,39.0,9,-99.99,,,-99.99,,2013-05-23 20:31:00,
2013-05-23 14:41:00,74.0,14.0,-100.00,SSW,200,27.0,34.0,9,-99.99,,,-99.99,,2013-05-23 20:41:00,
2013-05-23 14:51:00,73.0,13.0,-100.00,South,185,29.0,40.0,9,-99.99,,,-99.99,,2013-05-23 20:51:00,
2013-05-23 15:01:00,74.0,14.0,-100.00,South,185,24.0,32.0,9,-99.99,,,-99.99,,2013-05-23 21:01:00,
2013-05-23 15:21:00,74.0,14.0,-100.00,North,-999,-999.0,-999.0,9,-99.99,,,-99.99,,2013-05-23 21:21:00,
2013-05-23 15:32:00,75.0,15.0,-100.00,South,180,24.0,-999.0,9,-99.99,,,-99.99,,2013-05-23 21:32:00,
2013-05-23 15:53:00,73.0,13.0,-100.00,South,180,25.0,-999.0,9,-99.99,,,-99.99,,2013-05-23 21:53:00,
2013-05-23 16:02:00,74.0,14.0,-100.00,North,-999,-999.0,-999.0,9,-99.99,,,-99.99,,2013-05-23 22:02:00,
2013-05-23 16:12:00,75.0,15.0,-100.00,SSW,210,25.0,-999.0,9,-99.99,,,-99.99,,2013-05-23 22:12:00,
2013-05-23 16:22:00,74.0,14.0,-100.00,South,175,30.0,37.0,9,-99.99,,,-99.99,,2013-05-23 22:22:00,
2013-05-23 16:33:00,74.0,14.0,-100.00,South,175,30.0,37.0,9,-99.99,,,-99.99,,2013-05-23 22:33:00,
2013-05-23 16:52:00,75.0,15.0,-100.00,South,185,19.0,-999.0,9,-99.99,,,-99.99,,2013-05-23 22:52:00,
2013-05-23 17:01:00,74.0,14.0,-100.00,SSW,205,26.0,-999.0,9,-99.99,,,-99.99,,2013-05-23 23:01:00,
2013-05-23 17:11:00,75.0,15.0,-100.00,SW,215,29.0,37.0,9,-99.99,,,-99.99,,2013-05-23 23:11:00,
2013-05-23 17:21:00,74.0,14.0,-100.00,SSW,200,29.0,36.0,9,-99.99,,,-99.99,,2013-05-23 23:21:00,
2013-05-23 17:31:00,74.0,14.0,-100.00,SSW,200,29.0,37.0,10,-99.99,,,-99.99,,2013-05-23 23:31:00,
2013-05-23 17:42:00,74.0,14.0,-100.00,SSW,195,26.0,35.0,10,-99.99,,,-99.99,,2013-05-23 23:42:00,
2013-05-23 17:52:00,74.0,14.0,-100.00,SSW,210,29.0,35.0,9,-99.99,,,-99.99,,2013-05-23 23:52:00,
2013-05-23 18:01:00,72.0,13.0,-100.00,SSW,200,21.0,37.0,9,-99.99,,,-99.99,,2013-05-24 00:01:00,
2013-05-23 18:11:00,73.0,13.0,-100.00,SSW,205,27.0,34.0,9,-99.99,,,-99.99,,2013-05-24 00:11:00,
2013-05-23 18:21:00,73.0,13.0,-100.00,South,185,16.0,34.0,9,-99.99,,,-99.99,,2013-05-24 00:21:00,
2013-05-23 18:31:00,73.0,13.0,-100.00,South,185,24.0,39.0,9,-99.99,,,-99.99,,2013-05-24 00:31:00,
2013-05-23 18:42:00,73.0,14.0,-100.00,South,180,26.0,34.0,9,-99.99,,,-99.99,,2013-05-24 00:42:00,
2013-05-23 18:52:00,73.0,13.0,-100.00,South,175,28.0,37.0,9,-99.99,,,-99.99,,2013-05-24 00:52:00,
2013-05-23 19:01:00,73.0,13.0,-100.00,SSW,205,26.0,35.0,9,-99.99,,,-99.99,,2013-05-24 01:01:00,
2013-05-23 19:11:00,72.0,13.0,-100.00,SSW,200,24.0,35.0,10,-99.99,,,-99.99,,2013-05-24 01:11:00,
2013-05-23 19:21:00,72.0,13.0,-100.00,SSW,200,29.0,35.0,9,-99.99,,,-99.99,,2013-05-24 01:21:00,
2013-05-23 19:31:00,72.0,12.0,-100.00,SSW,200,17.0,33.0,9,-99.99,,,-99.99,,2013-05-24 01:31:00,
2013-05-23 19:41:00,71.0,11.0,-100.00,SW,215,17.0,-999.0,9,-99.99,,,-99.99,,2013-05-24 01:41:00,
2013-05-23 19:52:00,70.0,11.0,-100.00,SW,225,23.0,30.0,9,-99.99,,,-99.99,,2013-05-24 01:52:00,
2013-05-23 20:01:00,69.0,10.0,-100.00,SSW,210,18.0,25.0,9,-99.99,,,-99.99,,2013-05-24 02:01:00,
2013-05-23 20:11:00,68.0,9.0,-100.00,SSW,210,17.0,26.0,9,-99.99,,,-99.99,,2013-05-24 02:11:00,
2013-05-23 20:21:00,67.0,9.0,-100.00,SW,215,15.0,25.0,9,-99.99,,,-99.99,,2013-05-24 02:21:00,
2013-05-23 20:32:00,67.0,8.0,-100.00,SSW,210,16.0,23.0,9,-99.99,,,-99.99,,2013-05-24 02:32:00,
2013-05-23 20:41:00,66.0,8.0,-100.00,SSW,200,16.0,21.0,9,-99.99,,,-99.99,,2013-05-24 02:41:00,
2013-05-23 20:52:00,65.0,7.0,-100.00,SSW,205,15.0,-999.0,9,-99.99,,,-99.99,,2013-05-24 02:52:00,
2013-05-23 21:02:00,65.0,7.0,-100.00,SSW,210,17.0,21.0,9,-99.99,,,-99.99,,2013-05-24 03:02:00,
2013-05-23 23:02:00,58.0,15.0,-100.00,SW,230,11.0,-999.0,18,-99.99,,,-99.99,,2013-05-24 05:02:00,
2013-05-23 23:12:00,58.0,16.0,-100.00,WSW,240,9.0,12.0,18,-99.99,,,-99.99,,2013-05-24 05:12:00,
2013-05-23 23:22:00,59.0,16.0,-100.00,WNW,290,6.0,9.0,18,-99.99,,,-99.99,,2013-05-24 05:22:00,
2013-05-23 23:32:00,59.0,15.0,-100.00,West,275,7.0,9.0,18,-99.99,,,-99.99,,2013-05-24 05:32:00,
2013-05-23 23:42:00,58.0,16.0,-100.00,NW,325,10.0,14.0,18,-99.99,,,-99.99,,2013-05-24 05:42:00,
2013-05-23 23:52:00,56.0,18.0,-100.00,NNW,345,12.0,16.0,21,-99.99,,,-99.99,,2013-05-24 05:52:00,